Location: Unspecified
(47.9110°N, 14.3980°E)
Time: 17:37:21
(UTC+00:00)

Terra - Pass Details

Date: 06 August 2020
Orbit: 701 x 703 km, 98.2° (Epoch: 25 September)

Event Time Altitude Azimuth Distance (km) Brightness Sun altitude
Exits shadow 20:33:06 31° 137° (SE) 1,233 2.5 -17.0°
Maximum altitude 20:35:14 59° 71° (ENE) 818 2.0 -17.2°
Drops below altitude 10° 20:39:56 10° 353° (N) 2,184 5.3 -17.7°
Sets 20:42:13 0° 350° (N) 3,107 6.3 -17.9°
